Temp
20 20 21 21 21 22 22 22 23 23 24 24 24 25 25 26 27 28 29 30 29 29 29 28 29 29 27 26 27 27 24 24 26 30 31 29 29 30 30 28 29 28 26 25 23
20 20 21 21 21 22 22 23 23 23 24 24 24 25 25 26 27 29 30 30 29 29 29 29 29 29 27 28 29 27 22 27 28 32 32 30 31 30 30 27 26 26 25 24 24
19 20 21 21 22 22 22 23 23 23 24 24 24 25 25 26 27 29 29 30 29 29 28 28 28 27 28 29 29 29 28 29 31 33 33 33 31 31 28 27 26 24 23 24 24
19 19 20 20 21 22 22 23 23 23 24 24 24 24 25 26 25 28 29 28 29 28 28 28 28 27 27 26 29 28 30 31 31 32 31 31 32 28 30 30 28 26 25 24 24
18 19 19 20 20 21 22 23 23 23 23 24 24 24 25 25 27 29 29 28 28 28 28 28 27 27 26 27 28 29 29 30 31 32 32 33 33 32 30 30 26 25 25 24 24
18 18 19 19 20 20 21 22 23 23 23 24 24 24 24 22 28 29 28 28 28 28 28 28 27 28 28 28 27 30 29 30 31 31 32 32 32 34 30 28 26 25 25 25 24
17 18 18 19 20 20 21 22 22 23 23 23 23 23 22 27 28 27 27 27 28 28 28 28 28 27 29 26 30 30 27 28 30 31 30 32 30 30 29 27 26 25 26 25 25
17 17 18 18 19 20 21 22 22 23 23 23 23 22 22 27 27 29 28 27 27 28 28 28 28 28 28 30 29 27 27 25 29 29 31 31 27 30 28 27 26 26 26 25 25
16 17 17 18 19 19 21 21 22 23 24 23 22 22 22 27 27 29 29 28 28 28 28 28 27 28 29 25 22 22 23 25 27 30 29 30 28 30 29 27 27 26 26 25 25
15 16 17 18 19 19 21 21 22 23 22 22 21 20 24 27 27 27 28 29 27 28 28 27 28 25 22 21 22 22 23 24 25 29 29 28 29 30 29 28 27 27 26 26 25
15 15 16 18 18 19 20 21 20 21 20 20 21 21 23 27 25 27 28 27 28 28 24 27 24 22 23 23 25 24 24 24 27 29 29 28 28 29 30 29 28 27 27 26 25
14 15 16 17 18 19 19 19 18 18 17 20 21 22 23 25 23 27 28 27 27 25 25 25 23 25 26 26 26 26 25 25 27 28 30 28 28 28 29 29 28 28 27 25 24
13 14 15 17 18 18 19 19 19 19 18 20 22 22 24 26 24 25 26 27 25 24 25 24 26 28 27 27 27 26 24 26 26 28 28 28 26 27 28 31 29 28 27 26 25
13 14 14 16 18 18 19 19 19 20 13 18 21 24 24 24 24 27 27 26 26 26 26 24 27 27 27 27 27 24 28 27 28 27 24 26 24 24 27 27 27 27 26 25 24
13 13 14 14 14 16 17 19 19 20 15 22 24 26 26 25 27 27 28 26 25 26 24 25 27 26 26 27 28 27 29 28 28 26 25 25 23 23 25 27 26 25 26 25 24
13 14 14 14 15 17 18 19 19 15 16 22 25 23 23 24 25 27 27 27 28 25 25 26 29 28 27 29 29 29 28 25 22 21 22 24 24 27 25 26 28 26 27 25 24
13 14 14 15 16 16 17 18 14 14 20 21 21 22 22 22 24 25 25 24 23 23 23 25 25 27 29 27 28 28 23 21 23 21 22 24 24 25 26 26 27 26 28 26 24
14 15 16 17 17 16 17 14 16 18 19 21 21 21 21 22 24 25 24 23 24 23 22 23 24 26 29 26 27 26 23 20 22 21 23 24 24 26 28 30 31 30 28 25 24
14 16 17 17 17 17 17 12 14 18 21 20 20 20 20 22 23 22 23 24 25 25 22 23 22 28 28 29 27 27 25 23 22 22 21 22 24 27 27 25 25 26 25 24 23
13 15 18 18 17 16 12 12 15 19 20 20 18 20 20 21 21 20 21 24 25 26 25 24 22 25 28 28 29 26 27 25 19 24 22 22 24 25 27 26 26 24 24 23 23
13 13 18 18 17 16 11 12 17 20 20 19 20 19 20 20 21 20 22 24 24 24 25 24 22 23 25 26 26 26 26 25 23 20 22 21 22 24 24 25 26 25 24 24 24
12 10 17 17 16 13 12 16 20 20 20 20 20 20 21 20 20 20 21 23 25 24 23 24 22 20 24 27 27 27 26 25 25 23 19 20 22 23 21 20 25 25 24 24 24
10 12 18 17 13 11 14 16 18 18 20 20 20 20 21 21 20 20 21 24 25 24 23 22 19 19 22 24 26 26 27 26 22 21 25 23 22 22 20 18 20 19 21 23 23
10 8 16 17 16 15 13 15 17 19 20 20 19 19 17 18 19 19 20 23 24 25 24 22 18 19 18 20 23 24 26 26 23 21 23 22 24 22 19 17 17 19 21 23 23
10 11 12 9 12 12 13 15 16 17 19 19 18 18 18 17 17 18 20 21 23 24 24 22 19 21 19 21 24 25 24 25 25 22 24 23 24 19 18 15 16 18 23 24 25
10 11 11 12 13 12 13 15 16 18 17 18 18 18 18 18 17 16 17 18 19 21 22 20 19 19 21 21 23 21 24 24 20 19 22 20 19 17 19 18 18 17 18 19 19
10 10 11 11 11 11 12 14 16 16 19 19 19 17 17 18 18 18 18 19 19 22 21 20 18 18 20 19 22 19 19 19 17 17 17 16 15 15 17 17 18 19 18 19 19
Height
1553 1550 1548 1546 1544 1541 1539 1537 1535 1533 1530 1528 1526 1523 1520 1517 1515 1513 1508 1508 1508 1509 1509 1510 1510 1510 1511 1506 1506 1507 1515 1514 1505 1491 1480 1480 1480 1485 1485 1485 1488 1490 1490 1499 1506
1552 1550 1547 1544 1542 1539 1537 1535 1533 1531 1528 1526 1523 1521 1517 1514 1510 1507 1506 1505 1506 1506 1507 1508 1508 1509 1508 1502 1503 1501 1516 1500 1488 1478 1476 1480 1478 1481 1485 1486 1489 1488 1493 1499 1504
1552 1549 1546 1543 1540 1537 1534 1532 1530 1528 1526 1523 1521 1519 1516 1512 1508 1505 1505 1505 1505 1505 1505 1504 1505 1506 1504 1500 1498 1498 1502 1487 1480 1478 1476 1473 1475 1474 1479 1486 1482 1487 1494 1498 1503
1551 1548 1545 1542 1538 1535 1532 1529 1527 1525 1523 1521 1519 1517 1515 1513 1515 1503 1503 1504 1504 1503 1502 1502 1502 1504 1501 1500 1496 1500 1490 1487 1481 1478 1473 1472 1473 1474 1476 1471 1477 1483 1489 1496 1499
1549 1546 1543 1540 1536 1533 1530 1527 1524 1522 1520 1518 1516 1514 1513 1511 1501 1502 1501 1501 1501 1501 1501 1500 1499 1500 1501 1496 1494 1495 1487 1485 1480 1475 1471 1471 1468 1472 1469 1472 1479 1486 1490 1493 1497
1548 1544 1540 1537 1533 1530 1527 1524 1521 1518 1516 1514 1513 1512 1511 1508 1499 1498 1498 1499 1498 1497 1497 1497 1497 1499 1497 1495 1496 1489 1486 1482 1478 1473 1470 1471 1466 1468 1473 1470 1477 1483 1487 1491 1494
1546 1543 1538 1535 1531 1526 1523 1520 1517 1515 1512 1510 1509 1507 1506 1495 1499 1497 1496 1496 1494 1494 1494 1493 1496 1499 1495 1493 1490 1488 1490 1480 1476 1472 1470 1470 1469 1464 1465 1468 1472 1480 1484 1487 1490
1544 1540 1536 1532 1528 1524 1519 1515 1512 1509 1507 1506 1505 1503 1497 1492 1495 1493 1490 1490 1492 1491 1491 1492 1495 1496 1496 1492 1489 1492 1491 1503 1475 1473 1465 1476 1487 1460 1463 1465 1471 1477 1480 1484 1487
1543 1538 1534 1530 1525 1520 1515 1511 1507 1503 1501 1501 1501 1501 1494 1488 1486 1485 1486 1485 1490 1491 1490 1489 1492 1493 1491 1496 1508 1503 1514 1504 1486 1470 1474 1473 1473 1452 1459 1459 1465 1471 1475 1480 1484
1541 1536 1531 1527 1523 1517 1513 1508 1503 1499 1499 1498 1498 1502 1490 1484 1483 1481 1484 1484 1486 1489 1489 1488 1487 1489 1493 1504 1526 1515 1510 1499 1496 1470 1472 1471 1464 1453 1457 1457 1460 1467 1471 1477 1478
1539 1534 1529 1525 1521 1516 1512 1506 1505 1502 1500 1503 1498 1496 1489 1478 1479 1476 1479 1480 1482 1485 1490 1486 1493 1501 1490 1491 1488 1495 1502 1501 1481 1468 1475 1468 1467 1456 1453 1456 1461 1462 1467 1472 1474
1536 1532 1526 1522 1518 1515 1513 1512 1514 1516 1499 1494 1489 1486 1481 1479 1479 1467 1477 1478 1476 1480 1480 1488 1496 1479 1479 1481 1485 1488 1495 1494 1479 1467 1464 1464 1465 1454 1448 1449 1452 1455 1463 1468 1473
1535 1530 1525 1519 1516 1515 1513 1513 1511 1507 1502 1483 1475 1473 1469 1471 1468 1466 1470 1470 1472 1476 1478 1488 1474 1474 1480 1479 1485 1485 1493 1486 1484 1464 1460 1464 1471 1459 1447 1444 1445 1449 1451 1458 1461
1534 1529 1525 1518 1518 1514 1511 1511 1509 1506 1512 1485 1473 1466 1465 1468 1468 1458 1457 1469 1467 1470 1471 1475 1467 1473 1476 1478 1475 1492 1466 1471 1471 1474 1497 1466 1503 1469 1449 1445 1444 1446 1450 1455 1459
1531 1528 1524 1521 1517 1514 1512 1509 1507 1507 1536 1476 1469 1468 1467 1465 1457 1446 1451 1458 1463 1464 1466 1469 1467 1468 1472 1466 1466 1473 1458 1461 1462 1472 1478 1475 1494 1476 1454 1450 1445 1445 1443 1448 1452
1528 1525 1519 1520 1514 1512 1510 1508 1507 1520 1528 1483 1471 1472 1467 1460 1454 1444 1445 1450 1452 1458 1456 1457 1454 1455 1456 1453 1456 1455 1460 1462 1468 1481 1500 1479 1485 1461 1461 1448 1436 1437 1442 1442 1448
1525 1522 1517 1513 1512 1511 1510 1510 1523 1531 1492 1486 1483 1476 1473 1466 1455 1443 1440 1445 1458 1471 1471 1458 1455 1448 1448 1457 1448 1454 1475 1503 1501 1505 1501 1472 1482 1461 1436 1430 1427 1427 1432 1436 1441
1521 1516 1511 1507 1509 1509 1510 1513 1527 1507 1500 1487 1484 1476 1476 1469 1459 1450 1444 1453 1445 1453 1465 1471 1476 1452 1440 1450 1454 1457 1471 1501 1511 1514 1492 1466 1482 1449 1424 1410 1410 1407 1415 1428 1438
1517 1512 1507 1507 1508 1508 1511 1528 1521 1504 1493 1493 1487 1484 1476 1471 1471 1464 1458 1454 1445 1452 1467 1461 1463 1434 1435 1433 1444 1449 1466 1454 1476 1480 1496 1480 1459 1432 1419 1411 1408 1408 1420 1427 1433
1516 1511 1508 1509 1509 1510 1514 1522 1509 1497 1494 1492 1500 1488 1488 1478 1475 1470 1466 1452 1450 1443 1444 1449 1463 1440 1431 1431 1427 1440 1437 1467 1480 1491 1501 1483 1470 1462 1433 1423 1418 1422 1422 1429 1436
1516 1512 1510 1510 1510 1511 1522 1517 1502 1493 1493 1492 1488 1487 1480 1480 1472 1472 1465 1454 1446 1445 1437 1442 1451 1451 1438 1440 1439 1441 1445 1444 1462 1471 1486 1496 1478 1435 1433 1422 1416 1416 1421 1425 1430
1517 1515 1509 1512 1512 1512 1516 1505 1498 1491 1485 1476 1476 1476 1475 1474 1474 1471 1469 1461 1451 1445 1449 1442 1449 1463 1443 1424 1423 1426 1436 1440 1457 1470 1474 1475 1470 1432 1427 1419 1419 1424 1426 1431 1434
1517 1513 1509 1510 1517 1515 1506 1501 1497 1489 1483 1479 1476 1473 1467 1470 1477 1468 1462 1453 1450 1446 1448 1446 1460 1471 1451 1434 1420 1429 1423 1428 1442 1447 1448 1468 1463 1432 1430 1424 1424 1429 1432 1434 1440
1519 1518 1509 1508 1510 1510 1510 1501 1495 1487 1481 1478 1475 1471 1473 1473 1467 1468 1462 1451 1449 1447 1444 1444 1461 1467 1484 1464 1443 1436 1425 1426 1430 1461 1452 1452 1440 1435 1436 1428 1426 1429 1432 1433 1436
1522 1520 1519 1519 1510 1511 1508 1501 1495 1488 1481 1477 1473 1475 1478 1481 1474 1473 1463 1455 1448 1444 1442 1449 1462 1454 1457 1439 1430 1427 1429 1426 1434 1442 1447 1437 1434 1444 1437 1436 1435 1424 1426 1431 1431
1523 1523 1521 1517 1512 1510 1504 1502 1499 1489 1488 1483 1481 1475 1474 1478 1478 1479 1472 1464 1460 1447 1446 1444 1459 1454 1453 1445 1431 1435 1425 1426 1441 1454 1446 1451 1454 1451 1444 1442 1443 1446 1440 1440 1442
1524 1523 1521 1516 1513 1513 1508 1507 1500 1493 1482 1481 1477 1475 1474 1471 1468 1464 1461 1456 1450 1449 1445 1448 1458 1462 1461 1446 1440 1450 1447 1444 1463 1462 1458 1466 1471 1460 1457 1461 1445 1446 1449 1452 1456
Wind_Speed
17 17 17 18 18 17 17 17 16 16 16 17 17 17 18 18 18 17 20 15 12 9 11 11 13 14 11 20 19 15 1 8 6 7 3 17 6 11 7 22 8 16 32 39 32
17 18 19 19 19 19 19 18 18 18 17 17 17 18 20 22 23 16 5 5 7 8 10 14 17 13 10 23 10 4 4 7 7 6 6 17 16 17 6 10 13 26 33 45 33
18 17 18 19 20 20 20 20 19 19 19 19 18 17 19 20 20 1 6 1 3 6 12 16 15 12 9 18 2 2 3 9 22 11 7 5 17 26 15 2 19 39 44 45 34
18 19 19 19 20 20 21 21 20 20 20 20 20 19 17 16 4 3 10 9 6 9 12 16 11 4 3 6 11 8 17 11 16 29 21 7 6 7 18 14 32 43 47 41 37
19 19 20 21 21 20 20 20 21 20 20 20 19 19 18 12 22 17 12 8 10 13 14 14 12 8 4 7 16 3 9 21 30 34 30 19 13 2 17 23 37 43 42 39 35
20 21 22 23 23 23 22 21 20 21 20 20 18 17 15 12 10 7 9 12 16 15 14 13 9 9 11 9 4 12 16 22 26 29 26 7 13 5 7 40 42 43 42 37 37
20 21 21 22 23 25 25 22 20 20 21 20 19 17 17 30 11 13 12 14 12 12 10 12 15 14 8 8 12 15 9 14 18 17 13 11 12 6 33 42 43 39 41 39 40
24 24 23 23 24 25 25 23 21 21 21 20 19 18 15 29 22 24 26 26 15 12 8 9 10 17 16 12 12 7 3 5 11 12 25 4 11 7 38 40 37 38 40 41 42
25 26 26 25 25 27 27 22 17 19 20 19 16 11 14 18 18 19 23 27 19 14 11 10 16 19 7 3 6 6 8 8 17 17 7 5 14 8 36 39 36 37 38 38 41
27 29 28 27 24 26 26 20 13 11 12 6 6 6 17 17 13 14 16 26 24 15 18 16 8 3 2 5 7 7 7 6 10 16 9 9 8 6 30 35 35 36 36 34 42
27 28 28 26 23 23 22 17 22 4 26 18 26 21 30 23 30 30 17 20 22 19 6 15 1 7 13 9 12 7 8 14 20 19 6 7 6 11 13 29 28 32 34 34 41
28 29 30 27 23 15 12 15 18 21 16 29 30 33 37 35 26 34 23 11 16 14 5 1 9 18 12 12 12 12 13 17 16 15 3 9 10 9 6 11 28 32 32 34 34
27 29 30 28 19 8 15 11 14 20 7 24 28 24 28 28 36 39 29 18 10 11 13 12 19 10 10 15 13 14 8 14 14 6 4 2 9 6 7 4 24 35 44 45 48
26 28 28 30 9 20 8 12 12 15 5 7 4 6 6 6 8 41 45 21 6 17 18 11 18 14 16 13 13 13 19 16 9 1 5 5 6 8 8 9 6 25 36 41 45
26 28 27 25 28 23 13 13 9 2 4 6 6 3 24 8 11 19 36 26 12 9 8 15 14 14 14 21 14 15 20 21 11 3 2 6 2 8 5 7 6 12 35 41 50
26 26 29 24 24 7 11 11 6 5 6 5 5 12 21 25 8 19 13 20 20 11 9 10 20 15 16 19 14 11 6 3 5 4 4 5 4 14 5 9 6 14 31 42 44
26 25 25 26 16 14 12 9 5 3 6 5 11 16 19 8 13 7 7 9 6 5 8 6 9 11 14 11 16 4 5 4 3 3 8 6 2 13 8 10 15 13 33 42 47
27 27 22 16 4 2 2 5 2 4 7 12 12 19 3 10 12 15 3 7 6 5 5 9 15 10 20 10 13 7 8 6 7 4 9 3 6 11 14 21 30 29 46 44 42
30 23 9 11 7 7 4 4 6 4 4 8 16 5 6 19 7 9 8 4 6 4 9 11 10 16 16 21 9 13 4 9 5 1 2 4 8 10 8 7 5 19 32 38 39
28 21 7 7 6 6 5 5 5 5 8 9 5 5 14 16 9 7 6 7 10 5 3 4 4 7 18 9 20 8 8 2 2 3 8 5 4 6 7 1 8 7 21 27 31
21 10 4 4 7 3 2 6 7 20 18 5 13 9 11 7 4 6 5 9 10 8 5 1 4 7 7 6 17 4 4 5 3 4 7 3 7 6 8 10 12 17 25 35 38
8 3 12 12 1 0 2 4 8 23 38 16 7 8 4 2 5 6 5 3 23 6 5 2 3 3 10 16 10 2 5 6 8 10 1 5 7 5 4 5 6 14 14 19 29
15 6 7 8 1 3 7 7 14 8 7 7 4 6 3 2 3 3 7 14 20 8 3 4 2 5 10 7 9 6 9 6 4 4 16 10 8 6 4 15 19 20 24 21 18
6 4 5 4 3 3 5 7 10 17 10 6 3 10 8 7 2 4 6 6 20 10 21 5 0 4 4 12 9 4 2 2 6 4 7 8 6 5 5 13 15 22 25 27 26
3 2 6 4 5 8 3 5 8 8 12 10 8 5 3 6 7 8 6 10 18 13 3 1 4 2 8 11 7 2 6 9 8 11 2 6 2 3 1 7 8 31 34 33 24
4 5 8 11 12 8 3 6 16 8 7 8 6 11 6 1 1 11 10 6 6 8 4 3 4 3 3 9 7 11 11 11 15 9 6 6 10 15 7 13 9 7 19 16 9
3 6 4 7 6 4 2 10 14 18 12 18 4 4 8 5 18 26 23 22 14 5 5 1 2 0 5 6 8 7 8 16 13 11 1 6 6 8 16 11 13 19 17 13 19
Wind_Direction
344 342 340 339 337 336 335 334 333 332 331 331 331 328 325 319 312 303 286 285 264 252 265 277 290 305 299 273 268 249 302 274 254 273 135 170 155 163 129 129 155 192 151 153 162
341 338 336 334 333 332 330 329 328 326 325 323 324 326 324 322 319 312 306 256 249 270 283 281 281 294 276 285 290 163 170 266 210 277 317 176 154 174 139 108 89 112 137 147 166
341 337 334 331 330 328 326 324 323 322 321 319 318 320 321 324 326 355 30 55 234 281 282 285 277 286 282 296 287 247 261 300 309 319 355 326 174 171 141 162 158 140 145 154 165
341 339 337 334 330 326 323 322 320 318 316 315 316 317 317 318 297 231 330 319 276 247 275 289 267 250 266 294 307 329 301 295 319 326 330 328 133 133 174 191 164 155 156 159 164
341 339 335 331 329 325 322 319 317 314 312 310 311 314 318 299 268 281 286 281 284 275 272 277 247 248 245 276 323 280 315 323 324 324 320 320 302 225 218 162 154 153 159 165 172
340 338 336 332 327 322 318 317 315 310 305 302 303 303 302 277 293 272 267 273 298 267 268 242 232 236 285 279 303 299 321 321 321 310 314 315 297 126 186 157 153 160 165 171 179
343 338 335 332 329 323 317 311 308 306 302 296 292 290 278 262 276 300 263 263 294 269 276 238 215 257 292 315 318 333 347 321 307 303 295 2 315 268 159 157 159 165 171 177 183
344 340 337 333 331 326 321 314 306 299 292 290 285 285 265 281 288 270 263 252 257 270 252 191 236 265 274 276 335 4 10 319 288 318 295 36 276 284 161 156 164 170 176 183 187
344 341 337 333 331 327 327 322 317 299 291 287 280 273 271 275 256 271 247 249 247 255 250 250 261 259 274 67 357 9 255 271 293 288 280 182 259 211 171 164 169 177 179 187 189
341 340 338 336 333 327 333 335 335 321 18 329 259 284 258 278 284 298 280 255 235 244 248 255 247 185 42 88 237 241 268 272 264 290 303 283 297 319 171 171 176 180 181 188 186
336 335 334 334 333 330 343 13 14 345 327 300 287 263 284 269 275 275 267 284 225 225 201 249 127 223 227 204 233 224 242 263 276 277 261 297 278 287 180 181 179 182 181 187 180
335 336 334 332 336 329 341 12 6 328 296 300 286 273 266 268 288 279 256 274 209 215 218 190 230 235 223 228 233 242 251 266 278 266 225 309 297 276 257 198 184 178 178 175 170
332 334 336 331 340 339 327 341 348 341 299 288 273 262 262 252 245 260 262 265 217 212 219 220 243 257 228 244 242 252 237 260 244 282 330 353 299 300 292 288 186 182 177 176 178
328 329 334 330 340 335 347 322 311 344 26 277 257 283 287 260 269 249 257 240 259 207 216 219 254 245 255 252 233 252 255 245 260 37 256 109 274 299 280 307 184 174 168 176 178
324 326 325 329 318 326 317 335 339 354 345 273 280 49 339 183 277 274 246 230 231 229 152 226 227 247 242 241 248 251 257 249 235 220 54 306 84 265 324 291 248 195 176 179 182
323 323 320 319 314 322 323 346 360 51 256 300 339 349 345 329 275 273 241 224 231 231 243 227 225 237 237 255 248 261 248 32 58 110 293 235 156 279 229 232 269 187 187 180 183
320 323 317 305 305 300 310 333 44 150 319 305 338 344 330 316 321 338 209 241 189 177 247 257 254 259 251 274 279 224 69 283 324 344 244 151 164 250 250 238 235 190 185 182 184
324 327 318 294 259 217 237 56 148 263 273 314 333 321 290 8 333 341 296 238 264 190 231 231 262 235 258 205 248 244 158 174 207 222 257 159 224 268 269 263 242 237 183 175 176
329 336 5 111 101 131 98 82 213 236 318 344 328 306 322 338 333 0 327 349 245 141 232 228 236 245 237 262 164 258 188 207 152 88 49 253 294 314 338 37 46 141 156 168 172
334 336 62 142 118 128 76 225 243 246 302 303 289 275 306 317 327 14 330 2 341 44 228 357 357 265 245 239 258 181 232 254 13 168 265 280 281 258 308 329 73 108 149 160 167
336 331 156 109 132 163 153 237 277 282 282 237 280 275 294 308 295 316 312 306 350 325 339 180 132 286 330 239 243 225 210 107 350 144 212 237 270 211 269 250 186 171 162 164 177
353 335 156 173 176 243 191 225 288 301 305 283 212 241 230 324 336 347 321 276 329 282 38 312 231 270 250 274 246 271 286 229 209 255 252 169 259 51 29 356 150 143 135 168 177
337 287 191 232 186 281 290 282 290 290 310 338 295 333 310 309 355 294 326 316 335 342 68 297 327 355 340 344 302 255 255 227 174 28 230 219 254 95 43 54 75 87 98 118 143
347 352 335 292 326 30 342 297 317 316 306 330 342 25 8 336 324 275 319 314 332 331 352 78 178 114 209 251 272 285 16 360 97 162 250 223 195 100 357 109 103 104 115 127 136
351 294 15 317 321 327 290 266 298 320 343 351 355 13 9 328 328 351 326 321 326 309 340 141 237 54 261 271 243 67 38 20 62 9 155 302 190 83 138 139 121 132 142 151 170
16 6 338 299 304 334 345 320 325 313 7 316 8 336 341 348 138 313 318 309 256 310 34 338 304 169 284 303 65 59 26 77 59 12 343 34 62 355 116 101 81 102 131 143 142
323 305 312 294 323 358 310 327 337 344 315 317 316 25 336 324 324 308 284 264 255 259 313 37 205 243 264 293 266 32 353 89 79 49 165 62 336 344 44 4 96 100 97 66 58